Theta_e
349 348 348 352 352 353 353 353 351 347 345 345 344 344 346 351 351 349 351 353 352 353 353 352 352 353 352 352 351 351 350 351 350 350 350 349 347 346 348 347 343 345 346
350 353 350 349 352 352 353 354 353 351 351 350 349 351 352 352 352 351 353 353 353 353 352 351 352 352 351 350 350 349 350 350 351 350 350 351 349 347 349 349 342 346 348
351 350 350 349 352 352 351 352 352 353 352 351 351 351 351 353 351 351 352 352 351 350 350 350 352 351 350 349 349 346 342 344 348 349 344 347 348 350 349 349 345 347 346
349 350 351 351 351 352 351 351 351 352 352 352 351 350 348 351 352 353 352 348 346 353 351 351 351 351 345 343 342 343 344 345 345 346 346 340 345 347 350 350 347 345 342
347 349 350 350 351 352 351 351 351 352 352 352 345 352 349 345 351 352 352 349 347 351 351 350 351 348 342 341 341 341 342 343 344 345 347 348 346 344 341 347 347 347 345
348 349 349 351 351 351 350 351 351 352 352 343 336 345 351 348 347 350 352 348 347 350 347 347 344 343 342 342 341 341 342 343 344 346 346 347 347 346 341 344 348 346 344
348 352 350 349 344 348 350 351 351 343 337 341 335 338 345 345 346 345 341 342 346 344 342 341 341 341 340 339 337 337 337 334 335 337 338 342 344 345 343 338 348 348 344
348 350 346 347 348 349 348 348 344 333 335 350 349 344 345 344 346 345 344 344 343 341 340 339 337 336 336 335 335 335 335 336 338 340 345 346 344 344 339 335 345 346 347
348 343 349 347 349 351 349 334 331 332 344 348 341 340 343 343 341 343 341 341 340 340 340 341 342 343 344 345 347 347 347 346 344 344 345 344 344 344 338 336 343 347 345
344 349 351 344 352 352 352 334 330 337 344 343 342 339 339 339 341 342 342 343 344 345 345 346 346 346 346 347 348 348 347 347 347 345 345 342 344 343 339 344 343 343 342
346 351 346 348 347 345 345 337 334 338 339 340 342 343 345 346 347 346 346 346 347 345 344 344 345 346 347 347 346 346 346 346 347 348 344 345 342 342 340 344 344 343 343
350 351 346 346 345 348 346 343 334 336 338 341 345 347 348 348 349 349 346 346 346 345 344 342 344 345 346 345 344 345 345 345 345 345 346 347 345 343 342 344 343 343 344
348 349 347 346 347 346 344 340 341 346 347 347 348 348 348 349 349 349 348 349 349 349 350 350 349 346 344 346 347 346 345 343 343 344 342 341 346 346 344 343 345 344 344
347 348 344 344 345 342 340 341 345 348 347 348 349 349 349 348 349 349 347 349 348 350 348 348 347 346 347 349 344 343 341 342 342 340 339 339 344 346 345 344 344 343 343
346 345 341 339 339 339 339 341 343 346 348 347 349 349 349 349 349 346 345 349 350 349 346 347 346 347 348 344 342 340 338 337 338 338 337 337 341 342 342 341 341 341 343
344 345 342 340 340 340 338 340 342 345 347 348 346 347 349 349 348 350 349 349 349 347 346 346 347 348 345 340 337 339 339 335 335 337 335 337 336 337 336 337 339 341 342
344 345 346 346 344 341 338 340 342 346 347 349 349 348 347 347 347 347 347 348 349 347 344 347 348 345 341 338 337 336 334 335 335 335 336 337 336 337 337 337 338 338 339
344 346 347 349 345 341 341 343 344 347 350 348 348 346 347 345 345 347 347 348 349 350 345 346 345 345 344 341 337 336 335 337 337 337 337 337 337 337 338 339 340 341 340
346 344 346 348 347 343 344 348 350 351 349 348 346 346 344 343 345 346 348 347 349 348 343 348 347 348 348 348 343 336 335 336 335 336 336 335 333 331 330 331 335 335 337
345 343 345 346 348 347 348 350 350 353 352 348 346 346 343 344 345 347 348 348 348 349 349 347 348 351 349 349 347 338 335 334 335 334 333 329 329 327 326 326 326 325 325
345 344 344 346 347 348 348 350 350 353 352 351 350 348 346 344 344 344 348 348 349 349 349 349 349 351 351 348 342 341 335 335 334 335 332 329 327 325 323 322 323 324 325
346 346 346 347 347 347 347 349 349 349 349 350 351 350 349 347 345 344 348 349 349 348 349 349 351 352 350 347 339 335 337 337 336 337 331 328 326 324 323 321 320 322 326
346 347 347 347 347 346 347 348 348 348 348 347 348 349 348 346 345 343 347 350 350 350 349 349 349 350 349 343 340 337 337 340 334 335 334 328 328 324 323 322 322 321 324
345 346 346 347 347 347 346 348 348 347 347 345 341 339 338 337 341 341 347 349 350 350 352 349 349 347 340 334 337 337 339 337 338 339 332 332 327 325 324 322 322 322 324
346 346 346 347 347 346 347 348 349 348 348 346 345 347 347 345 342 346 348 350 351 351 351 350 347 337 330 333 331 336 339 338 336 335 335 330 327 325 324 323 323 322 321
347 347 347 347 347 347 348 348 348 348 348 348 348 348 349 349 347 346 348 350 351 352 352 350 344 340 336 335 333 333 337 338 335 328 328 326 325 326 326 324 325 323 321
Wind_Speed
9 13 14 15 17 19 21 20 20 20 20 20 19 18 16 15 14 13 13 13 12 12 12 12 11 10 11 11 12 11 11 10 10 9 9 8 8 8 7 7 6 7 7
15 15 15 15 16 17 18 18 19 19 18 18 18 16 15 14 14 14 13 14 12 12 11 11 11 11 11 11 10 10 11 9 8 7 6 5 4 4 4 4 5 6 7
16 15 16 15 15 15 16 16 17 16 16 16 16 15 15 15 13 14 14 13 11 11 12 11 11 11 10 10 9 10 8 7 7 6 4 2 3 1 2 2 3 4 5
18 16 16 16 16 15 15 15 13 14 15 15 15 15 14 14 13 13 12 11 11 11 11 11 11 10 9 9 8 7 6 5 5 4 4 3 0 1 2 4 3 4 4
18 16 16 15 14 15 14 14 13 14 14 14 12 15 12 12 12 12 11 11 10 10 10 10 9 8 7 6 6 4 3 3 3 4 5 5 5 4 4 4 4 4 4
18 17 14 14 13 13 14 13 13 13 12 11 12 13 12 10 11 10 11 9 10 8 8 7 7 7 6 5 4 2 1 3 5 6 7 8 10 9 6 6 6 5 5
19 15 14 12 12 13 12 12 11 11 11 13 12 12 11 11 11 11 10 9 8 6 5 5 4 3 2 2 1 1 3 4 5 7 9 10 9 9 8 8 7 7 7
18 14 14 12 11 12 12 11 10 11 13 13 9 11 11 10 9 8 7 6 5 3 2 2 1 2 1 1 1 2 3 4 5 7 10 12 11 9 8 8 8 9 10
16 16 13 13 13 11 9 10 12 13 13 11 10 9 9 9 8 6 5 4 4 4 4 4 3 3 2 1 1 2 4 5 7 7 10 8 9 9 8 7 9 12 11
17 16 14 14 13 13 12 11 13 13 12 11 10 9 9 8 7 6 5 4 4 3 2 3 3 2 1 3 2 3 5 5 8 8 9 6 8 11 10 7 10 11 13
17 15 15 15 14 13 12 12 13 12 11 9 9 8 7 6 4 3 3 3 4 4 3 3 4 4 5 5 4 5 6 7 9 9 9 7 8 13 15 11 10 12 13
19 18 17 16 15 14 13 13 13 12 10 9 7 6 5 3 3 2 3 4 4 3 2 2 4 8 8 8 9 10 10 10 9 9 10 10 8 9 16 12 12 12 11
22 19 19 17 16 15 15 15 14 12 9 8 6 5 3 2 1 1 3 4 5 5 6 7 8 7 8 10 11 10 11 11 11 11 11 10 11 10 10 12 11 10 10
22 22 20 18 17 17 16 16 14 11 9 7 5 4 2 2 1 2 4 6 6 6 5 4 6 8 9 9 8 8 8 8 9 10 9 10 8 9 10 9 10 10 9
23 23 22 20 19 19 18 16 14 11 9 7 6 5 3 2 2 3 5 7 8 6 3 3 6 8 9 7 7 6 7 8 8 7 6 7 5 6 8 9 11 11 12
25 24 22 22 21 19 18 16 14 11 8 8 8 8 7 6 5 5 7 7 5 3 4 5 7 9 9 8 11 9 10 11 9 7 8 7 5 7 7 9 11 11 13
27 24 24 23 22 21 20 17 14 12 12 15 14 11 11 11 8 8 9 6 5 6 6 9 7 6 9 7 9 13 13 14 7 5 5 6 6 5 8 10 11 10 10
28 27 25 25 25 24 21 18 15 12 11 13 14 13 12 11 11 10 10 8 10 8 7 8 5 6 8 10 12 17 17 11 5 4 3 4 5 3 3 3 4 6 7
32 30 28 27 27 26 23 20 18 14 11 11 14 13 12 13 13 13 13 11 7 6 6 7 8 8 10 13 15 17 10 8 10 10 5 6 7 7 8 7 6 5 5
32 33 31 29 28 27 26 23 20 19 17 16 16 15 14 14 14 11 15 14 11 10 9 9 9 9 11 13 16 13 6 6 10 8 5 8 8 9 9 7 7 7 7
30 32 34 32 32 30 28 26 24 25 23 23 22 20 19 18 19 17 17 16 16 15 12 9 10 10 10 12 12 18 5 8 9 5 4 4 5 7 8 7 7 8 8
34 36 36 36 35 34 32 31 30 29 27 29 26 25 24 24 23 21 18 20 19 18 17 14 11 10 8 12 11 9 4 6 1 10 1 3 8 9 10 9 10 10 7
30 35 37 40 39 38 36 34 31 30 27 27 30 31 29 26 25 23 20 20 22 22 20 16 14 12 7 14 18 9 4 3 5 2 4 1 7 11 11 12 12 15 12
33 38 40 40 40 38 38 36 35 31 29 33 31 30 28 26 24 25 22 21 22 25 25 21 14 10 34 33 21 19 17 13 3 5 3 11 7 8 9 9 11 16 8
33 34 40 41 40 41 40 38 39 37 37 34 29 27 26 23 23 24 23 21 22 24 24 14 11 39 34 29 21 20 17 16 12 7 3 10 18 7 9 9 13 20 13
30 33 37 38 41 41 41 42 42 41 40 36 34 31 28 24 22 23 23 22 21 21 22 9 12 16 12 20 17 23 20 11 6 8 3 5 12 17 19 9 15 21 14
Wind_Direction
128 123 123 117 107 108 109 109 112 115 118 122 128 127 123 120 118 118 119 117 112 106 98 96 95 91 89 88 91 98 96 98 96 98 100 110 116 118 114 118 124 120 123
141 132 129 126 119 115 116 115 112 111 112 117 121 119 118 118 120 119 118 112 111 104 98 98 97 95 92 88 86 85 85 83 88 90 97 103 92 123 125 119 120 130 139
135 132 130 126 122 121 122 118 113 112 114 116 117 120 121 116 117 117 118 115 115 108 104 101 98 93 92 92 84 84 84 73 72 67 54 75 93 121 202 134 132 158 164
137 135 129 129 126 125 121 115 115 113 116 116 113 113 116 118 117 120 115 113 114 112 111 108 103 99 97 92 85 79 66 62 50 21 9 1 305 220 189 222 202 197 185
141 139 136 128 130 126 125 120 117 116 117 117 113 113 116 120 121 115 112 114 119 109 105 103 99 92 95 101 97 88 83 52 4 340 323 305 290 285 252 241 233 222 208
146 143 142 135 126 123 126 130 120 117 118 115 112 122 123 114 118 115 114 111 105 103 106 103 101 102 100 87 86 90 0 348 331 324 312 302 294 260 265 230 227 230 216
148 145 147 139 133 132 130 127 128 125 120 111 110 117 118 117 117 115 113 115 112 112 114 110 102 91 80 64 62 272 272 289 294 297 303 288 278 248 253 241 228 235 239
152 155 147 138 139 142 141 141 136 130 125 117 112 117 117 112 107 104 109 115 121 118 92 45 19 23 36 42 2 306 296 287 290 298 304 287 251 235 243 245 238 238 246
159 155 154 159 152 143 141 139 141 134 130 127 129 122 114 110 105 100 89 73 68 49 27 18 8 27 35 38 17 311 313 321 301 301 325 328 217 217 240 246 244 242 254
166 163 166 156 159 155 149 147 144 142 136 131 126 123 115 105 95 88 75 66 62 45 34 28 60 67 338 305 303 290 296 298 292 279 318 330 222 222 236 250 237 251 251
176 174 172 168 167 160 154 150 149 143 139 135 129 122 112 103 96 74 52 31 23 25 29 16 19 347 326 316 319 302 291 301 287 284 292 308 258 241 239 247 250 244 256
183 183 181 177 172 164 160 156 152 149 149 147 143 133 127 120 80 58 42 35 33 10 13 5 333 320 318 325 328 323 313 309 307 305 292 294 284 270 246 257 275 253 263
186 186 187 184 178 173 169 164 161 158 159 159 161 162 163 145 73 3 346 335 322 301 295 300 310 321 329 331 334 328 315 305 300 304 294 294 257 277 277 252 298 274 279
190 192 190 188 185 180 177 176 172 171 172 171 169 168 185 203 231 302 334 330 324 322 307 315 327 327 324 322 336 336 346 324 318 308 298 299 265 263 284 282 276 284 286
194 197 195 191 189 186 186 186 187 186 184 193 204 209 216 211 239 274 312 323 319 303 306 331 335 323 322 335 340 3 2 336 321 327 312 303 270 268 272 273 271 280 280
196 198 196 196 193 193 193 193 197 201 208 228 230 224 244 248 261 284 296 315 324 303 303 310 317 313 327 341 348 344 334 326 311 312 321 318 291 264 266 277 279 275 278
199 198 200 199 197 198 197 198 203 219 240 246 243 243 244 254 260 267 283 287 310 308 305 317 308 325 333 335 356 352 344 334 313 291 316 325 314 297 279 271 273 281 275
205 205 203 202 201 200 204 208 213 231 245 235 223 237 248 254 265 274 269 277 300 281 297 307 296 312 328 336 350 356 353 352 357 340 354 17 33 38 35 343 294 278 276
211 209 209 208 206 206 211 219 226 225 236 227 221 236 246 259 259 262 270 270 285 302 296 283 280 306 326 341 348 353 12 54 56 44 50 61 70 63 47 38 27 359 320
214 214 214 214 215 215 219 224 224 223 227 230 231 236 239 253 263 274 268 262 264 278 283 272 277 304 327 337 339 338 344 94 63 46 67 67 66 45 35 26 5 345 333
217 217 219 218 220 221 220 221 222 226 230 233 235 238 244 253 263 272 282 255 258 267 275 279 279 295 320 341 340 332 315 254 284 35 101 85 43 34 18 14 9 354 346
215 221 223 223 224 224 225 224 224 230 238 243 245 248 250 253 260 269 278 253 260 270 272 276 279 286 330 -0 348 327 345 339 340 315 189 38 22 13 11 10 6 3 6
211 218 223 227 228 228 227 228 230 236 245 249 247 248 249 253 254 262 267 260 263 270 272 277 281 294 9 21 9 332 328 281 319 272 262 307 352 350 359 359 9 2 352
214 223 228 229 229 231 229 229 230 230 237 248 249 253 256 255 254 257 259 265 269 277 271 275 295 31 55 17 321 298 296 280 291 326 294 296 300 336 347 346 350 354 339
212 216 225 229 229 231 231 229 230 232 242 248 251 255 257 257 255 253 254 266 273 280 270 270 78 80 40 338 283 290 307 270 265 247 299 302 314 322 334 322 344 349 340
210 213 220 224 229 230 231 231 231 232 237 243 248 251 255 258 256 247 251 265 276 279 269 221 138 123 24 307 258 265 270 248 250 226 257 301 308 323 321 319 336 339 334